• en France
  • Liste des pays
  • À 7 jours
  • Température de l'eau
  • Carte satellitaire
  • Carte météo
  • Widgets météo
  • user-avatar
    Se connecter

    Météo par heure à Piorunow

    Ce jour, 19 Août, Dimanche

    Heure Température Précipitation Vent Pression Humidité
    00:00 +22°C° 0 mm 1 m/s 756 mmHg 71%
    01:00 +22°C° 0 mm 1 m/s 756 mmHg 72%
    02:00 +22°C° 0 mm 1 m/s 756 mmHg 73%
    03:00 +22°C° 0 mm 1 m/s 756 mmHg 73%
    04:00 +20°C° 0 mm 0 m/s 756 mmHg 73%
    05:00 +22°C° 0 mm 1 m/s 756 mmHg 71%
    06:00 +23°C° 0 mm 1 m/s 757 mmHg 68%
    07:00 +24°C° 0 mm 1 m/s 757 mmHg 65%
    08:00 +25°C° 0 mm 1 m/s 757 mmHg 61%
    09:00 +27°C° 0 mm 2 m/s 757 mmHg 56%
    10:00 +28°C° 0 mm 2 m/s 757 mmHg 52%
    11:00 +29°C° 0 mm 2 m/s 756 mmHg 47%
    12:00 +29°C° 0 mm 2 m/s 756 mmHg 43%
    13:00 +30°C° 0 mm 2 m/s 756 mmHg 40%
    14:00 +30°C° 0 mm 2 m/s 755 mmHg 38%
    15:00 +30°C° 0 mm 2 m/s 755 mmHg 37%
    16:00 +30°C° 0 mm 2 m/s 755 mmHg 35%
    17:00 +29°C° 0 mm 2 m/s 755 mmHg 39%
    18:00 +27°C° 0 mm 1 m/s 754 mmHg 43%
    19:00 +26°C° 0 mm 1 m/s 754 mmHg 46%
    20:00 +25°C° 0 mm 1 m/s 754 mmHg 47%
    21:00 +24°C° 0 mm 1 m/s 754 mmHg 47%
    22:00 +24°C° 0 mm 1 m/s 754 mmHg 47%
    23:00 +23°C° 0 mm 2 m/s 754 mmHg 48%

    Demain, 20 Août, Lundi

    Heure Température Précipitation Vent Pression Humidité
    00:00 +23°C° 0 mm 2 m/s 754 mmHg 50%
    01:00 +23°C° 0 mm 2 m/s 753 mmHg 51%
    02:00 +23°C° 0 mm 2 m/s 753 mmHg 54%
    03:00 +21°C° 0 mm 2 m/s 753 mmHg 58%
    04:00 +21°C° 0 mm 3 m/s 753 mmHg 62%
    05:00 +22°C° 0 mm 3 m/s 753 mmHg 63%
    06:00 +24°C° 0 mm 3 m/s 753 mmHg 64%
    07:00 +25°C° 0 mm 4 m/s 753 mmHg 64%
    08:00 +26°C° 0 mm 4 m/s 753 mmHg 58%
    09:00 +28°C° 0 mm 4 m/s 753 mmHg 51%
    10:00 +29°C° 0 mm 5 m/s 753 mmHg 44%
    11:00 +30°C° 0 mm 5 m/s 752 mmHg 44%
    12:00 +30°C° 0 mm 5 m/s 752 mmHg 43%
    13:00 +30°C° 0 mm 6 m/s 752 mmHg 42%
    14:00 +30°C° 0 mm 6 m/s 752 mmHg 45%
    15:00 +29°C° 0 mm 6 m/s 752 mmHg 48%
    16:00 +28°C° 0 mm 6 m/s 752 mmHg 51%
    17:00 +27°C° 0 mm 5 m/s 752 mmHg 55%
    18:00 +26°C° 0 mm 5 m/s 752 mmHg 60%
    19:00 +23°C° 0 mm 4 m/s 752 mmHg 64%
    20:00 +22°C° 0 mm 3 m/s 753 mmHg 67%
    21:00 +21°C° 0 mm 3 m/s 753 mmHg 71%
    22:00 +20°C° 0 mm 3 m/s 753 mmHg 74%
    23:00 +20°C° 0 mm 3 m/s 754 mmHg 77%

    Après-demain, 21 Août, Mardi

    Heure Température Précipitation Vent Pression Humidité
    00:00 +20°C° 0 mm 3 m/s 754 mmHg 80%
    01:00 +19°C° 0 mm 3 m/s 754 mmHg 83%
    02:00 +18°C° 0 mm 3 m/s 754 mmHg 83%
    03:00 +18°C° 0 mm 3 m/s 754 mmHg 84%
    04:00 +17°C° 0 mm 3 m/s 755 mmHg 85%
    05:00 +18°C° 0 mm 3 m/s 755 mmHg 79%
    06:00 +18°C° 0 mm 3 m/s 755 mmHg 73%
    07:00 +18°C° 0 mm 4 m/s 756 mmHg 67%
    08:00 +20°C° 0 mm 4 m/s 756 mmHg 61%
    09:00 +21°C° 0 mm 4 m/s 756 mmHg 55%
    10:00 +22°C° 0 mm 4 m/s 756 mmHg 48%
    11:00 +23°C° 0 mm 4 m/s 756 mmHg 45%
    12:00 +25°C° 0 mm 4 m/s 756 mmHg 41%
    13:00 +26°C° 0 mm 4 m/s 756 mmHg 37%
    14:00 +26°C° 0 mm 4 m/s 756 mmHg 37%
    15:00 +26°C° 0 mm 3 m/s 756 mmHg 37%
    16:00 +26°C° 0 mm 3 m/s 756 mmHg 37%
    17:00 +24°C° 0 mm 3 m/s 756 mmHg 41%
    18:00 +23°C° 0 mm 2 m/s 756 mmHg 45%
    19:00 +21°C° 0 mm 1 m/s 756 mmHg 50%
    20:00 +21°C° 0 mm 1 m/s 757 mmHg 53%
    21:00 +20°C° 0 mm 1 m/s 757 mmHg 56%
    22:00 +19°C° 0 mm 1 m/s 757 mmHg 59%
    23:00 +17°C° 0 mm 2 m/s 757 mmHg 62%

    22 Août, Mercredi

    Heure Température Précipitation Vent Pression Humidité
    00:00 +17°C° 0 mm 2 m/s 757 mmHg 65%
    01:00 +16°C° 0 mm 2 m/s 758 mmHg 68%
    02:00 +16°C° 0 mm 2 m/s 758 mmHg 70%
    03:00 +16°C° 0 mm 2 m/s 758 mmHg 72%
    04:00 +15°C° 0 mm 2 m/s 758 mmHg 74%
    05:00 +16°C° 0 mm 3 m/s 758 mmHg 71%
    06:00 +17°C° 0 mm 3 m/s 758 mmHg 68%
    07:00 +18°C° 0 mm 3 m/s 758 mmHg 65%
    08:00 +20°C° 0 mm 3 m/s 758 mmHg 59%
    09:00 +22°C° 0 mm 3 m/s 758 mmHg 52%
    10:00 +25°C° 0 mm 3 m/s 758 mmHg 46%
    11:00 +26°C° 0 mm 3 m/s 757 mmHg 43%
    12:00 +27°C° 0 mm 3 m/s 757 mmHg 41%
    13:00 +27°C° 0 mm 3 m/s 756 mmHg 38%
    14:00 +28°C° 0 mm 3 m/s 756 mmHg 38%
    15:00 +28°C° 0 mm 3 m/s 756 mmHg 37%
    16:00 +28°C° 0 mm 3 m/s 755 mmHg 37%
    17:00 +26°C° 0 mm 3 m/s 755 mmHg 42%
    18:00 +25°C° 0 mm 3 m/s 755 mmHg 47%
    19:00 +22°C° 0 mm 3 m/s 755 mmHg 52%
    20:00 +21°C° 0 mm 3 m/s 755 mmHg 53%
    21:00 +20°C° 0 mm 3 m/s 755 mmHg 55%
    22:00 +20°C° 0 mm 3 m/s 755 mmHg 56%
    23:00 +19°C° 0 mm 3 m/s 755 mmHg 59%

    23 Août, Jeudi

    Heure Température Précipitation Vent Pression Humidité
    00:00 +19°C° 0 mm 3 m/s 755 mmHg 62%
    01:00 +18°C° 0 mm 3 m/s 755 mmHg 66%
    02:00 +18°C° 0 mm 3 m/s 755 mmHg 69%
    03:00 +18°C° 0 mm 3 m/s 754 mmHg 72%
    04:00 +17°C° 0 mm 3 m/s 754 mmHg 76%
    05:00 +18°C° 0 mm 3 m/s 754 mmHg 73%
    06:00 +20°C° 0 mm 4 m/s 754 mmHg 71%
    07:00 +21°C° 0 mm 4 m/s 754 mmHg 68%
    08:00 +23°C° 0 mm 4 m/s 754 mmHg 61%
    09:00 +26°C° 0 mm 4 m/s 753 mmHg 55%
    10:00 +28°C° 0 mm 4 m/s 753 mmHg 48%
    11:00 +29°C° 0 mm 3 m/s 753 mmHg 44%
    12:00 +30°C° 0 mm 3 m/s 752 mmHg 41%
    13:00 +31°C° 0 mm 3 m/s 752 mmHg 38%
    14:00 +31°C° 0 mm 3 m/s 751 mmHg 38%
    15:00 +31°C° 0 mm 2 m/s 751 mmHg 39%
    16:00 +31°C° 0 mm 2 m/s 751 mmHg 39%
    17:00 +30°C° 0,1 mm 2 m/s 751 mmHg 43%
    18:00 +28°C° 0,1 mm 3 m/s 750 mmHg 47%
    19:00 +27°C° 0,1 mm 3 m/s 750 mmHg 51%
    20:00 +26°C° 0,9 mm 3 m/s 750 mmHg 56%
    21:00 +25°C° 0,9 mm 3 m/s 750 mmHg 62%
    22:00 +22°C° 0,9 mm 4 m/s 750 mmHg 67%
    23:00 +22°C° 1 mm 4 m/s 749 mmHg 70%

    24 Août, Vendredi

    Heure Température Précipitation Vent Pression Humidité
    00:00 +22°C° 1 mm 4 m/s 749 mmHg 74%
    01:00 +21°C° 1 mm 3 m/s 749 mmHg 77%
    02:00 +21°C° 0,2 mm 3 m/s 749 mmHg 79%
    03:00 +21°C° 0,2 mm 3 m/s 748 mmHg 80%
    04:00 +21°C° 0,2 mm 3 m/s 748 mmHg 81%
    05:00 +22°C° 0,3 mm 4 m/s 748 mmHg 77%
    06:00 +23°C° 0,3 mm 4 m/s 748 mmHg 73%
    07:00 +23°C° 0,3 mm 4 m/s 747 mmHg 70%
    08:00 +26°C° 0,1 mm 4 m/s 747 mmHg 64%
    09:00 +28°C° 0,1 mm 4 m/s 747 mmHg 58%
    10:00 +30°C° 0,1 mm 4 m/s 747 mmHg 53%
    11:00 +32°C° 0 mm 4 m/s 747 mmHg 49%
    12:00 +33°C° 0 mm 5 m/s 746 mmHg 45%
    13:00 +34°C° 0 mm 5 m/s 746 mmHg 41%
    14:00 +33°C° 0 mm 4 m/s 746 mmHg 43%
    15:00 +33°C° 0 mm 4 m/s 746 mmHg 44%
    16:00 +31°C° 0 mm 3 m/s 745 mmHg 46%
    17:00 +30°C° 0 mm 3 m/s 745 mmHg 49%
    18:00 +29°C° 0 mm 3 m/s 745 mmHg 53%
    19:00 +28°C° 0 mm 2 m/s 745 mmHg 56%
    20:00 +27°C° 0,8 mm 2 m/s 745 mmHg 60%
    21:00 +26°C° 0,8 mm 3 m/s 745 mmHg 64%
    22:00 +25°C° 0,8 mm 3 m/s 745 mmHg 68%
    23:00 +24°C° 1,3 mm 3 m/s 745 mmHg 73%
    Voir plus